User: anonymous   Login
Location: ??????
(33.3472°N, 35.4764°E)
Time: 19:07:34
(UTC+00:00)
Language:

IUS-1 SRM-2 - Orbit

View from above orbital plane
View from above orbital plane
View from above satellite
View from above satellite

Ground track
Ground track

The orbit data is extracted from the following two-line orbital elements,

1 13971U 83026D   19288.37156563  .00001249  00000-0  26583-3 0  9997
2 13971  25.8638 255.9460 6123670 184.7501 164.5498  3.86119184409604
Epoch (UTC): 15 October 2019 08:55:03
Eccentricity: 0.6123670
inclination: 25.8638°
perigee height: 275 km
apogee height: 21294 km
right ascension of ascending node: 255.9460°
argument of perigee: 184.7501°
revolutions per day: 3.86119184
mean anomaly at epoch: 164.5498°
orbit number at epoch: 40960

The dashed part of the orbit path shows where the satellite is in the earth's shadow,  

DLR